Find Starlink 11521

NORAD ID: 62597 Int'l Des: 2025-008 Owner: SPXS Country: US Constellation: starlink operational
LEOCIRCULAR

Live Position

Loading 3D Globe...

About Starlink 11521

Description loading...

Upcoming Passes

Passes for default location (London). Set your location on the main map for personalized predictions.

Altitude History

Loading altitude history...

Two-Line Element Set

1 62597U 25008L 26125.45398817 .00198573 00000-0 15104-2 0 9991
2 62597 42.9988 143.8383 0001312 226.6937 133.3821 15.70901895 76215
Epoch: May 5, 2026 • Age: 7 hours

Current Status

Altitude 360.8 km
Velocity 7.69 km/s
Sub-Earth Point -23.60°S, 142.46°W
Launch Date Jan 13, 2025
Age 1.3 years
Type internet

Technical Details

Classification Payload
Mass 960.00 kg
Dry Mass 910.00 kg
Total Mass 960.00 kg
Length 0.30 m
Diameter 4.10 m
Span 29.00 m
Shape Box + pan
Manufacturer SPXS
Bus Type Starlink V2MD
Phase Status In Orbit
Owner/State SPXS/US

Most Searched